Location: ?????
(44.4284°N, 135.2222°E)
Time: 06:37:57
(UTC+00:00)

ARIANE 6 FM1 Upper Stage - Pass Details

Date: 19 May 2025
Orbit: 530 x 611 km, 62.0° (Epoch: 23 June)

Event Time Altitude Azimuth Distance (km) Brightness Sun altitude
Rises 12:17:36 0° 237° (WSW) 2,662 6.2 -16.3°
Reaches altitude 10° 12:19:52 10° 244° (WSW) 1,775 5.4 -16.5°
Maximum altitude 12:23:39 41° 316° (NW) 777 3.9 -16.9°
Drops below altitude 10° 12:27:30 10° 28° (NNE) 1,799 5.6 -17.3°
Sets 12:29:49 0° 36° (NE) 2,702 6.4 -17.6°
